TIROS 2 DEB *, 5922

Orbit data source: Space-Track

TIROS 2 DEB *, 5922 is space debris in LEO originally from a launch on Wed, 23 Nov 1960 UTC launched from the Air Force Eastern Test Range (AFETR). Debris objects in space refer to the collection of defunct objects orbiting the Earth. Examples of debris include non-operational satellites, rocket bodies, and fragments generated from explosions, collisions, or faulty payload assembly.

Loading next visibility...
Identifier
5922, 1960-016E
Orbit
LEO
Last TLE update
22 hours ago
Origin
Manufacturer
Unknown
Mission
Spacecraft
Bus & Motor
Unknown
Mass
Unknown
Launch date (UTC)
1960-11-23 (65 years ago)
Launch vehicle
Unknown
Launch site
Air Force Eastern Test Range (AFETR)
Object type
Payload
Rocket body
Debris
Shape & HBR
Unknown
Radar Cross Section
Small (<0.1 m²)

Expand to show TLE details & history

TLE from 22 hours ago
0 TIROS 2 DEB *
1 05922U 60016E   25199.08566909 -.00000092  00000-0  43054-4 0  9992
2 05922  47.0315  77.2284 0040098 118.8512  30.7090 13.70017165705638
Epoch: 2025-07-18T02:03Z
TLE epoch observation values (Epoch: 2025-07-18T02:03:21.809Z)
Latitude
21.65935°
Longitude
-91.34658°
Altitude
974.064 km
Speed
7.38 km/s
True Right ascension
15h 42m 32s
True Declination
21° 32' 42"
Sunlit
Object was in daylight at epoch
Visualization orbit readout
Latitude
-47.17883°
Longitude
16.8353°
Altitude
1,040.05 km
Speed
7.32 km/s
Apparent Right ascension
23h 40m 08s
Apparent Declination
-44° 12' 52"
Sunlit
Object is in full shadow
Visualization observer readout
Local Sidereal Time
12:26:24
Azimuth
120.391° SE
Elevation
-80.409°
Doppler factor
1
Orbital elements
Apogee altitude
1,030.277 km
Perigee altitude
971.102 km
Semi-major axis
7,378.826 km
Eccentricity
0.00401
Inclination
47.0315°
RAAN
77.2284°
Arg. of periapsis
118.8512°
True anomaly
30.94467°
Mean anomaly
30.709°
Eccentric anomaly
30.82673°
Mean motion
3.42422 °/min
Orbital period
105.13 mins
BSTAR
0.000043054
Loading maneuver chart data...
Loading SW <> Apogee altitude chart data...
Loading historical data...
Loading historical data...
Loading historical data...
Loading historical data...
Loading historical data...
Loading historical data...
Loading historical data...
Other satellites on launch #16 in the year 1960 (1960-11-23 UTC)
|